Location: Newark
(25.6108°S, 54.5803°W)
Time: 15:01:10
(UTC+00:00)

ISS - Visible Passes

Search period start: 18 September 2020 00:00
Search period end: 28 September 2020 00:00
Orbit: 419 x 420 km, 51.6° (Epoch: 19 September)

Date Brightness Start Highest point End Pass type
(mag) Time Alt. Az. Time Alt. Az. Time Alt. Az.
19 Sep -1.5 08:38:35 10° N 08:41:24 25° NE 08:44:16 10° ESE visible
20 Sep -0.8 07:52:37 10° NNE 07:54:10 13° NE 07:55:44 10° E visible
21 Sep -3.8 08:40:24 14° NW 08:43:16 68° SW 08:46:41 10° SE visible
22 Sep -3.2 07:55:42 53° NE 07:55:55 54° NE 07:59:15 10° SE visible
23 Sep -0.5 07:10:48 14° ESE 07:10:48 14° ESE 07:11:28 10° ESE visible
23 Sep -1.9 08:43:48 14° WSW 08:45:22 18° SW 08:47:47 10° S visible
24 Sep -2.3 07:58:44 27° SSW 07:58:44 27° SSW 08:00:57 10° SSE visible
25 Sep -0.5 07:13:31 12° SE 07:13:31 12° SE 07:13:46 10° SE visible
